Regional Weather Roundup
Issued by NWS State College, PA

Home | Current Version | Previous Version | Text Only | Print | Product List | Glossary On
Versions: 1 2 3 4 5 6 7 8 9 10 11 12 13 14 15 16 17 18 19 20 21 22 23 24 25 26 27 28 29 30 31 32 33 34 35 36 37 38 39 40 41 42 43 44 45 46 47 48 49 50
000
ASUS41 KCTP 240603
RWRCTP

REGIONAL WEATHER ROUNDUP
NATIONAL WEATHER SERVICE STATE COLLEGE PA
200 AM EDT SAT JUN 24 2017

Note: "fair" indicates few or no clouds below 12,000 feet with no
significant weather and/or obstructions to visibility.

* = STATION THAT DOES NOT REPORT PRECIPITATION /E.G. RAIN...SNOW...ETC/
    THUNDER OR FOG.

PAZ002>004-007>009-013>016-020>023-029>032-240700-
WESTERN PENNSYLVANIA

CITY           SKY/WX    TMP DP  RH WIND       PRES   REMARKS
ERIE           CLOUDY    68  67  96 W10       29.68R
MEADVILLE      RAIN      65  65 100 W7        29.72R FOG
FRANKLIN*      CLOUDY    66  63  88 NW12G17   29.73R
NEW CASTLE     LGT RAIN  68  67  96 W6        29.73R
BEAVER COUNTY  NOT AVBL
BUTLER*        CLOUDY    66  64  94 W7        29.72S
PITTSBURGH INT CLOUDY    68  67  96 W7        29.73R
PITTSBURGH     CLOUDY    67  64  90 W8        29.73R
INDIANA*       CLOUDY    68  68 100 W7        29.74S
LATROBE        LGT RAIN  66  66 100 SW6       29.73S
WASHINGTON CO* CLOUDY    66  64  94 W8        29.77R
$$

PAZ004>006-010>012-017>019-024>028-033>037-041-042-045-046-049>053-240700-
CENTRAL PENNSYLVANIA

CITY           SKY/WX    TMP DP  RH WIND       PRES   REMARKS
BRADFORD       LGT RAIN  66  66 100 VRB7      29.69F
DUBOIS         CLOUDY    66  64  93 SW9       29.70S
CLEARFIELD     LGT RAIN  67  67 100 SW8       29.70S
JOHNSTOWN      RAIN      64  64 100 W6        29.72F FOG
ALTOONA        LGT RAIN  67  67 100 CALM      29.70F
STATE COLLEGE  RAIN      67  66  97 SW5       29.68F
WILLIAMSPORT   LGT RAIN  72  70  93 W3        29.62F
SELINSGROVE    RAIN      71  71 100 SW5       29.65F
FT INDIANTOWN  RAIN      70  70 100 SW8       29.66R FOG
CAPITAL CITY   CLOUDY    72  69  90 W7        29.65S FOG
HARRISBURG     TSTM      72  71  97 NW9       29.64S FOG
YORK           LGT RAIN  72  72 100 NW6       29.65F
$$

PAZ038>040-043-044-047-048-054-055-060>062-067>071-240700-
EASTERN PENNSYLVANIA

CITY           SKY/WX    TMP DP  RH WIND       PRES   REMARKS
SCRANTON       LGT RAIN  73  71  93 SW5       29.64S
MOUNT POCONO   LGT RAIN  68  68 100 W9        29.69S
ALLENTOWN      LGT RAIN  73  70  90 SW5       29.64F
QUAKERTOWN*    CLOUDY    72  72 100 SW3       29.67S
READING        CLOUDY    72  72 100 CALM      29.63F
LANCASTER      CLOUDY    73  73 100 E3        29.63F
COATESVILLE    MOCLDY    72  72 100 CALM      29.67F
POTTSTOWN      CLOUDY    71  71 100 CALM      29.66F
BLUE BELL      CLOUDY    72  70  94 W6        29.67F
DOYLESTOWN     LGT RAIN  71  70  96 SW5       29.65S
WILLOW GROVE   NOT AVBL
NORTH PHILA    MOCLDY    79  72  79 NW6       29.66S
PHILADELPHIA   MOCLDY    83  71  67 SW15G25   29.64F
$$




USA.gov is the U.S. government's official web portal to all federal, state and local government web resources and services.